"read_dt","SO2 (ppb)","flags","PMT voltage (V)","lamp voltage (V)","lamp intensity (Hz)","internal temp (C)","react chamber temp (C)","sample flow (l/min)","pres (mmHg)","SO2 bkg (ppb)","SO2 coefficient"
2016-03-22 00:00:00,2045E-3,5C000400,-0724,0836,12034,024.6,045.3,0.261,756.5,01.16,0.508
2016-03-22 00:01:00,2191E-3,5C000400,-0724,0836,12156,024.6,045.3,0.261,756.4,01.16,0.508
2016-03-22 00:02:00,2071E-3,5C000400,-0724,0836,12188,024.5,045.3,0.261,756.3,01.16,0.508
2016-03-22 00:03:00,2092E-3,5C000400,-0724,0836,12119,024.6,045.3,0.261,756.5,01.16,0.508
2016-03-22 00:04:00,1999E-3,5C000400,-0724,0837,12122,024.6,045.3,0.261,756.3,01.16,0.508
2016-03-22 00:05:00,2022E-3,5C000400,-0724,0836,12135,024.5,045.3,0.261,756.3,01.16,0.508
2016-03-22 00:06:00,1975E-3,5C000400,-0724,0836,12173,024.5,045.3,0.261,756.4,01.16,0.508
2016-03-22 00:07:00,1956E-3,5C000400,-0724,0836,12144,024.5,045.3,0.261,756.3,01.16,0.508
2016-03-22 00:08:00,2071E-3,5C000400,-0724,0836,12175,024.5,045.3,0.261,756.0,01.16,0.508
2016-03-22 00:09:00,2051E-3,5C000400,-0724,0836,12285,024.5,045.3,0.262,756.2,01.16,0.508
2016-03-22 00:10:00,1928E-3,5C000400,-0724,0836,12107,024.5,045.3,0.261,756.1,01.16,0.508
2016-03-22 00:11:00,2071E-3,5C000400,-0724,0836,12092,024.5,045.3,0.261,756.2,01.16,0.508
2016-03-22 00:12:00,2040E-3,5C000400,-0724,0837,12125,024.5,045.3,0.262,756.0,01.16,0.508
2016-03-22 00:13:00,2168E-3,5C000400,-0724,0835,12195,024.5,045.3,0.261,756.2,01.16,0.508
2016-03-22 00:14:00,1865E-3,5C000400,-0724,0837,12180,024.5,045.3,0.261,756.2,01.16,0.508
2016-03-22 00:15:00,1946E-3,5C000400,-0724,0836,12239,024.5,045.3,0.262,756.1,01.16,0.508
2016-03-22 00:16:00,1959E-3,5C000400,-0724,0836,12237,024.5,045.3,0.261,756.3,01.16,0.508
2016-03-22 00:17:00,1941E-3,5C000400,-0724,0836,12090,024.5,045.3,0.261,756.2,01.16,0.508
2016-03-22 00:18:00,2041E-3,5C000400,-0724,0837,12201,024.5,045.3,0.262,756.0,01.16,0.508
2016-03-22 00:19:00,2012E-3,5C000400,-0724,0835,12002,024.5,045.3,0.261,756.2,01.16,0.508
2016-03-22 00:20:00,2056E-3,5C000400,-0724,0836,12260,024.5,045.3,0.261,755.9,01.16,0.508
2016-03-22 00:21:00,2008E-3,5C000400,-0724,0836,12163,024.5,045.3,0.261,756.2,01.16,0.508
2016-03-22 00:22:00,2074E-3,5C000400,-0724,0836,12153,024.5,045.3,0.261,756.3,01.16,0.508
2016-03-22 00:23:00,2018E-3,5C000400,-0724,0836,12090,024.5,045.3,0.262,756.3,01.16,0.508
2016-03-22 00:24:00,1825E-3,5C000400,-0724,0836,12032,024.5,045.3,0.261,756.2,01.16,0.508
2016-03-22 00:25:00,2075E-3,5C000400,-0724,0836,12211,024.5,045.4,0.261,756.3,01.16,0.508
2016-03-22 00:26:00,1829E-3,5C000400,-0724,0836,12107,024.5,045.3,0.261,756.3,01.16,0.508
2016-03-22 00:27:00,2135E-3,5C000400,-0724,0836,12259,024.5,045.3,0.261,756.5,01.16,0.508
2016-03-22 00:28:00,2009E-3,5C000400,-0724,0836,12133,024.5,045.4,0.262,756.5,01.16,0.508
2016-03-22 00:29:00,1958E-3,5C000400,-0724,0836,12093,024.5,045.3,0.261,756.6,01.16,0.508
2016-03-22 00:30:00,2225E-3,5C000400,-0724,0835,12135,024.5,045.3,0.262,756.6,01.16,0.508
2016-03-22 00:31:00,2022E-3,5C000400,-0724,0836,12070,024.5,045.3,0.261,756.7,01.16,0.508
2016-03-22 00:32:00,2013E-3,5C000400,-0724,0836,12129,024.5,045.3,0.262,756.6,01.16,0.508
2016-03-22 00:33:00,2105E-3,5C000400,-0724,0836,12091,024.5,045.3,0.261,756.5,01.16,0.508
2016-03-22 00:34:00,2054E-3,5C000400,-0724,0836,12118,024.5,045.3,0.261,756.7,01.16,0.508
2016-03-22 00:35:00,2119E-3,5C000400,-0724,0836,12057,024.5,045.3,0.261,756.6,01.16,0.508
2016-03-22 00:36:00,2082E-3,5C000400,-0724,0836,12255,024.5,045.3,0.262,756.8,01.16,0.508
2016-03-22 00:37:00,2005E-3,5C000400,-0724,0835,12057,024.5,045.3,0.261,756.6,01.16,0.508
2016-03-22 00:38:00,2172E-3,5C000400,-0724,0836,11996,024.5,045.3,0.261,756.6,01.16,0.508
2016-03-22 00:39:00,2108E-3,5C000400,-0724,0837,12348,024.5,045.3,0.261,756.5,01.16,0.508
2016-03-22 00:40:00,1951E-3,5C000400,-0724,0836,12096,024.5,045.3,0.262,756.5,01.16,0.508
2016-03-22 00:41:00,2073E-3,5C000400,-0724,0837,12211,024.5,045.3,0.261,756.3,01.16,0.508
2016-03-22 00:42:00,2031E-3,5C000400,-0724,0836,12116,024.5,045.3,0.262,756.2,01.16,0.508
2016-03-22 00:43:00,2016E-3,5C000400,-0724,0836,12017,024.5,045.3,0.262,756.2,01.16,0.508
2016-03-22 00:44:00,2127E-3,5C000400,-0724,0836,12142,024.5,045.3,0.262,756.1,01.16,0.508
2016-03-22 00:45:00,2229E-3,5C000400,-0724,0836,12093,024.5,045.3,0.262,756.1,01.16,0.508
2016-03-22 00:46:00,1896E-3,5C000400,-0724,0837,12168,024.5,045.3,0.261,756.0,01.16,0.508
2016-03-22 00:47:00,2070E-3,5C000400,-0724,0836,12176,024.5,045.3,0.262,756.2,01.16,0.508
2016-03-22 00:48:00,1956E-3,5C000400,-0724,0837,12167,024.5,045.3,0.261,756.3,01.16,0.508
2016-03-22 00:49:00,2118E-3,5C000400,-0724,0836,12072,024.5,045.3,0.261,756.2,01.16,0.508
2016-03-22 00:50:00,2073E-3,5C000400,-0724,0836,12076,024.5,045.3,0.261,756.2,01.16,0.508
2016-03-22 00:51:00,1968E-3,5C000400,-0724,0835,12054,024.5,045.3,0.261,756.2,01.16,0.508
2016-03-22 00:52:00,2225E-3,5C000400,-0724,0837,12104,024.5,045.3,0.261,756.1,01.16,0.508
2016-03-22 00:53:00,2003E-3,5C000400,-0724,0836,12196,024.5,045.3,0.262,756.1,01.16,0.508
2016-03-22 00:54:00,2053E-3,5C000400,-0724,0835,12157,024.5,045.3,0.261,756.2,01.16,0.508
2016-03-22 00:55:00,2004E-3,5C000400,-0724,0836,12140,024.6,045.3,0.262,756.1,01.16,0.508
2016-03-22 00:56:00,1987E-3,5C000400,-0724,0836,12169,024.5,045.3,0.261,756.0,01.16,0.508
2016-03-22 00:57:00,2163E-3,5C000400,-0724,0835,12015,024.5,045.3,0.261,756.1,01.16,0.508
2016-03-22 00:58:00,2079E-3,5C000400,-0724,0836,12194,024.5,045.3,0.261,756.1,01.16,0.508
2016-03-22 00:59:00,2128E-3,5C000400,-0724,0836,12085,024.6,045.4,0.261,756.2,01.16,0.508
2016-03-22 01:00:00,1901E-3,5C000400,-0724,0836,12173,024.5,045.3,0.262,756.1,01.16,0.508
2016-03-22 01:01:00,2069E-3,5C000400,-0724,0836,12229,024.5,045.3,0.261,756.1,01.16,0.508
2016-03-22 01:02:00,2008E-3,5C000400,-0724,0836,12095,024.5,045.3,0.261,756.1,01.16,0.508
2016-03-22 01:03:00,1956E-3,5C000400,-0724,0836,12204,024.5,045.3,0.261,756.0,01.16,0.508
2016-03-22 01:04:00,2029E-3,5C000400,-0724,0836,12096,024.6,045.3,0.261,756.0,01.16,0.508
2016-03-22 01:05:00,2073E-3,5C000400,-0724,0836,12124,024.5,045.3,0.262,756.1,01.16,0.508
2016-03-22 01:06:00,1952E-3,5C000400,-0724,0836,12031,024.6,045.3,0.261,756.0,01.16,0.508
2016-03-22 01:07:00,1970E-3,5C000400,-0724,0836,12166,024.5,045.3,0.261,755.9,01.16,0.508
2016-03-22 01:08:00,2021E-3,5C000400,-0724,0837,12156,024.6,045.3,0.261,756.0,01.16,0.508
2016-03-22 01:09:00,2059E-3,5C000400,-0724,0836,12071,024.6,045.3,0.261,756.0,01.16,0.508
2016-03-22 01:10:00,1937E-3,5C000400,-0724,0836,11995,024.6,045.3,0.261,756.1,01.16,0.508
2016-03-22 01:11:00,2103E-3,5C000400,-0724,0837,12229,024.6,045.3,0.261,756.1,01.16,0.508
2016-03-22 01:12:00,1941E-3,5C000400,-0724,0836,12012,024.6,045.3,0.261,756.0,01.16,0.508
2016-03-22 01:13:00,2104E-3,5C000400,-0724,0837,12118,024.6,045.3,0.261,756.1,01.16,0.508
2016-03-22 01:14:00,2201E-3,5C000400,-0724,0836,12192,024.6,045.3,0.261,755.9,01.16,0.508
2016-03-22 01:15:00,2066E-3,5C000400,-0724,0836,12198,024.6,045.3,0.261,756.0,01.16,0.508
2016-03-22 01:16:00,2059E-3,5C000400,-0724,0836,12059,024.6,045.3,0.261,756.0,01.16,0.508
2016-03-22 01:17:00,2039E-3,5C000400,-0724,0836,12137,024.6,045.3,0.261,756.0,01.16,0.508
2016-03-22 01:18:00,2143E-3,5C000400,-0724,0836,12217,024.6,045.3,0.261,755.9,01.16,0.508
2016-03-22 01:19:00,2069E-3,5C000400,-0724,0836,12131,024.6,045.4,0.261,756.0,01.16,0.508
2016-03-22 01:20:00,2002E-3,5C000400,-0724,0836,12252,024.6,045.3,0.261,755.9,01.16,0.508
2016-03-22 01:21:00,2155E-3,5C000400,-0724,0837,12220,024.6,045.3,0.261,755.9,01.16,0.508
2016-03-22 01:22:00,1994E-3,5C000400,-0724,0836,12232,024.6,045.3,0.261,755.9,01.16,0.508
2016-03-22 01:23:00,2075E-3,5C000400,-0724,0836,12078,024.6,045.3,0.261,755.9,01.16,0.508
2016-03-22 01:24:00,1932E-3,5C000400,-0724,0836,12206,024.6,045.3,0.261,755.9,01.16,0.508
2016-03-22 01:25:00,2167E-3,5C000400,-0724,0836,12076,024.6,045.3,0.261,755.8,01.16,0.508
2016-03-22 01:26:00,1946E-3,5C000400,-0724,0836,12155,024.6,045.3,0.262,756.1,01.16,0.508
2016-03-22 01:27:00,2119E-3,5C000400,-0724,0836,12235,024.6,045.3,0.261,756.0,01.16,0.508
2016-03-22 01:28:00,2141E-3,5C000400,-0724,0836,12146,024.6,045.3,0.261,756.0,01.16,0.508
2016-03-22 01:29:00,2020E-3,5C000400,-0724,0836,12160,024.6,045.3,0.261,755.8,01.16,0.508
2016-03-22 01:30:00,2037E-3,5C000400,-0724,0836,12225,024.6,045.3,0.261,756.0,01.16,0.508
2016-03-22 01:31:00,1985E-3,5C000400,-0724,0836,12134,024.6,045.3,0.261,755.9,01.16,0.508
2016-03-22 01:32:00,1994E-3,5C000400,-0724,0836,12257,024.6,045.3,0.261,756.0,01.16,0.508
2016-03-22 01:33:00,1987E-3,5C000400,-0724,0837,12213,024.6,045.4,0.261,756.1,01.16,0.508
2016-03-22 01:34:00,2029E-3,5C000400,-0724,0836,12073,024.6,045.3,0.261,755.9,01.16,0.508
2016-03-22 01:35:00,2095E-3,5C000400,-0724,0836,12108,024.6,045.3,0.261,756.0,01.16,0.508
2016-03-22 01:36:00,1906E-3,5C000400,-0724,0836,12078,024.6,045.3,0.261,755.9,01.16,0.508
2016-03-22 01:37:00,2127E-3,5C000400,-0724,0836,12056,024.6,045.3,0.261,755.9,01.16,0.508
2016-03-22 01:38:00,2149E-3,5C000400,-0724,0836,12277,024.6,045.3,0.261,755.9,01.16,0.508
2016-03-22 01:39:00,2080E-3,5C000400,-0724,0836,12061,024.6,045.3,0.261,756.0,01.16,0.508
2016-03-22 01:40:00,2128E-3,5C000400,-0724,0835,12088,024.6,045.3,0.261,756.0,01.16,0.508
2016-03-22 01:41:00,1955E-3,5C000400,-0724,0836,12106,024.6,045.3,0.261,756.0,01.16,0.508
2016-03-22 01:42:00,2031E-3,5C000400,-0724,0836,12136,024.6,045.3,0.261,756.0,01.16,0.508
2016-03-22 01:43:00,2148E-3,5C000400,-0724,0835,12127,024.6,045.3,0.262,755.8,01.16,0.508
2016-03-22 01:44:00,2011E-3,5C000400,-0724,0836,12123,024.6,045.3,0.261,755.9,01.16,0.508
2016-03-22 01:45:00,2013E-3,5C000400,-0724,0836,12199,024.6,045.3,0.261,755.8,01.16,0.508
2016-03-22 01:46:00,1941E-3,5C000400,-0724,0836,12077,024.6,045.3,0.261,755.9,01.16,0.508
2016-03-22 01:47:00,2164E-3,5C000400,-0724,0836,12134,024.7,045.3,0.261,755.8,01.16,0.508
2016-03-22 01:48:00,1947E-3,5C000400,-0724,0836,11994,024.6,045.3,0.261,755.8,01.16,0.508
2016-03-22 01:49:00,1991E-3,5C000400,-0724,0836,12039,024.7,045.3,0.261,755.8,01.16,0.508
2016-03-22 01:50:00,2048E-3,5C000400,-0724,0836,12232,024.6,045.3,0.261,755.7,01.16,0.508
2016-03-22 01:51:00,2081E-3,5C000400,-0724,0836,12115,024.6,045.3,0.262,755.7,01.16,0.508
2016-03-22 01:52:00,1957E-3,5C000400,-0724,0836,12088,024.6,045.3,0.261,755.8,01.16,0.508
2016-03-22 01:53:00,1910E-3,5C000400,-0724,0836,12113,024.7,045.3,0.261,755.7,01.16,0.508
2016-03-22 01:54:00,2057E-3,5C000400,-0724,0836,12268,024.6,045.3,0.261,755.6,01.16,0.508
2016-03-22 01:55:00,2057E-3,5C000400,-0724,0836,12114,024.6,045.3,0.261,755.6,01.16,0.508
2016-03-22 01:56:00,2047E-3,5C000400,-0724,0836,12003,024.7,045.3,0.261,755.5,01.16,0.508
2016-03-22 01:57:00,2078E-3,5C000400,-0724,0836,12039,024.6,045.4,0.261,755.4,01.16,0.508
2016-03-22 01:58:00,2024E-3,5C000400,-0724,0837,12051,024.7,045.3,0.261,755.5,01.16,0.508
2016-03-22 01:59:00,2097E-3,5C000400,-0724,0836,12053,024.6,045.3,0.261,755.6,01.16,0.508
2016-03-22 02:00:00,1941E-3,5C000400,-0724,0837,12133,024.7,045.3,0.261,755.5,01.16,0.508
2016-03-22 02:01:00,2093E-3,5C000400,-0724,0836,12225,024.7,045.3,0.261,755.5,01.16,0.508
2016-03-22 02:02:00,2145E-3,5C000400,-0724,0836,12054,024.7,045.3,0.261,755.5,01.16,0.508
2016-03-22 02:03:00,2075E-3,5C000400,-0724,0837,12085,024.6,045.3,0.261,755.4,01.16,0.508
2016-03-22 02:04:00,2024E-3,5C000400,-0724,0836,12180,024.7,045.3,0.261,755.5,01.16,0.508
2016-03-22 02:05:00,2027E-3,5C000400,-0724,0836,12182,024.6,045.3,0.261,755.6,01.16,0.508
2016-03-22 02:06:00,2193E-3,5C000400,-0724,0837,12217,024.7,045.3,0.261,755.4,01.16,0.508
2016-03-22 02:07:00,2015E-3,5C000400,-0724,0836,12019,024.7,045.3,0.261,755.5,01.16,0.508
2016-03-22 02:08:00,2109E-3,5C000400,-0724,0836,12122,024.7,045.3,0.261,755.4,01.16,0.508
2016-03-22 02:09:00,2020E-3,5C000400,-0724,0835,12089,024.7,045.3,0.261,755.4,01.16,0.508
2016-03-22 02:10:00,2039E-3,5C000400,-0724,0836,12166,024.7,045.4,0.261,755.5,01.16,0.508
2016-03-22 02:11:00,2022E-3,5C000400,-0724,0837,11998,024.6,045.3,0.261,755.4,01.16,0.508
2016-03-22 02:12:00,2089E-3,5C000400,-0724,0836,12215,024.7,045.3,0.261,755.5,01.16,0.508
2016-03-22 02:13:00,2014E-3,5C000400,-0724,0837,12184,024.6,045.3,0.261,755.5,01.16,0.508
2016-03-22 02:14:00,2033E-3,5C000400,-0724,0836,12234,024.7,045.3,0.261,755.6,01.16,0.508
2016-03-22 02:15:00,2113E-3,5C000400,-0724,0836,12092,024.7,045.3,0.261,755.6,01.16,0.508
2016-03-22 02:16:00,2041E-3,5C000400,-0724,0836,12126,024.7,045.3,0.261,755.6,01.16,0.508
2016-03-22 02:17:00,2103E-3,5C000400,-0724,0836,12064,024.7,045.3,0.261,755.5,01.16,0.508
2016-03-22 02:18:00,2025E-3,5C000400,-0724,0836,12066,024.7,045.3,0.261,755.5,01.16,0.508
2016-03-22 02:19:00,2216E-3,5C000400,-0724,0836,12082,024.7,045.3,0.261,755.6,01.16,0.508
2016-03-22 02:20:00,2004E-3,5C000400,-0724,0836,11989,024.7,045.3,0.261,755.5,01.16,0.508
2016-03-22 02:21:00,1992E-3,5C000400,-0724,0835,12109,024.7,045.3,0.261,755.5,01.16,0.508
2016-03-22 02:22:00,2073E-3,5C000400,-0724,0836,12140,024.7,045.3,0.261,755.5,01.16,0.508
2016-03-22 02:23:00,1970E-3,5C000400,-0724,0836,12149,024.7,045.3,0.261,755.4,01.16,0.508
2016-03-22 02:24:00,2038E-3,5C000400,-0724,0836,12177,024.7,045.3,0.261,755.5,01.16,0.508
2016-03-22 02:25:00,2169E-3,5C000400,-0724,0836,12079,024.7,045.3,0.261,755.6,01.16,0.508
2016-03-22 02:26:00,1945E-3,5C000400,-0724,0836,12235,024.7,045.3,0.261,755.6,01.16,0.508
2016-03-22 02:27:00,2031E-3,5C000400,-0724,0836,12183,024.7,045.3,0.261,755.4,01.16,0.508
2016-03-22 02:28:00,2149E-3,5C000400,-0724,0836,12147,024.7,045.3,0.261,755.5,01.16,0.508
2016-03-22 02:29:00,2069E-3,5C000400,-0724,0836,12105,024.7,045.3,0.261,755.4,01.16,0.508
2016-03-22 02:30:00,1998E-3,5C000400,-0724,0836,12102,024.7,045.3,0.261,755.6,01.16,0.508
2016-03-22 02:31:00,2080E-3,5C000400,-0724,0837,12065,024.7,045.3,0.261,755.5,01.16,0.508
2016-03-22 02:32:00,2145E-3,5C000400,-0724,0836,12056,024.7,045.4,0.261,755.6,01.16,0.508
2016-03-22 02:33:00,2088E-3,5C000400,-0724,0836,12193,024.7,045.3,0.261,755.5,01.16,0.508
2016-03-22 02:34:00,2028E-3,5C000400,-0724,0836,12063,024.6,045.3,0.261,755.5,01.16,0.508
2016-03-22 02:35:00,2111E-3,5C000400,-0724,0836,12165,024.7,045.3,0.261,755.6,01.16,0.508
2016-03-22 02:36:00,2084E-3,5C000400,-0724,0836,12066,024.7,045.3,0.261,755.6,01.16,0.508
2016-03-22 02:37:00,2021E-3,5C000400,-0724,0836,12109,024.7,045.3,0.261,755.5,01.16,0.508
2016-03-22 02:38:00,1962E-3,5C000400,-0724,0836,12150,024.7,045.4,0.261,755.6,01.16,0.508
2016-03-22 02:39:00,2060E-3,5C000400,-0724,0836,12209,024.7,045.3,0.261,755.6,01.16,0.508
2016-03-22 02:40:00,2078E-3,5C000400,-0724,0835,12192,024.7,045.3,0.261,755.5,01.16,0.508
2016-03-22 02:41:00,2172E-3,5C000400,-0724,0836,12180,024.7,045.3,0.261,755.5,01.16,0.508
2016-03-22 02:42:00,2106E-3,5C000400,-0724,0836,12220,024.7,045.3,0.261,755.7,01.16,0.508
2016-03-22 02:43:00,2073E-3,5C000400,-0724,0835,11994,024.7,045.3,0.261,755.6,01.16,0.508
2016-03-22 02:44:00,2096E-3,5C000400,-0724,0836,12215,024.7,045.3,0.261,755.5,01.16,0.508
2016-03-22 02:45:00,2002E-3,5C000400,-0724,0837,11995,024.7,045.3,0.261,755.4,01.16,0.508
2016-03-22 02:46:00,2182E-3,5C000400,-0724,0836,12159,024.7,045.3,0.261,755.4,01.16,0.508
2016-03-22 02:47:00,1919E-3,5C000400,-0724,0836,12192,024.7,045.3,0.261,755.3,01.16,0.508
2016-03-22 02:48:00,2160E-3,5C000400,-0724,0836,12235,024.7,045.3,0.261,755.4,01.16,0.508
2016-03-22 02:49:00,2016E-3,5C000400,-0724,0836,12272,024.7,045.3,0.261,755.3,01.16,0.508
2016-03-22 02:50:00,1997E-3,5C000400,-0724,0836,12151,024.7,045.3,0.261,755.3,01.16,0.508
2016-03-22 02:51:00,2079E-3,5C000400,-0724,0836,12123,024.7,045.3,0.261,755.3,01.16,0.508
2016-03-22 02:52:00,2146E-3,5C000400,-0724,0836,12259,024.7,045.4,0.261,755.4,01.16,0.508
2016-03-22 02:53:00,2122E-3,5C000400,-0724,0836,12113,024.7,045.3,0.261,755.2,01.16,0.508
2016-03-22 02:54:00,2033E-3,5C000400,-0724,0836,12228,024.7,045.3,0.261,755.1,01.16,0.508
2016-03-22 02:55:00,2118E-3,5C000400,-0724,0836,12258,024.7,045.3,0.261,755.1,01.16,0.508
2016-03-22 02:56:00,2163E-3,5C000400,-0724,0837,12018,024.7,045.3,0.260,755.2,01.16,0.508
2016-03-22 02:57:00,2078E-3,5C000400,-0724,0836,12110,024.7,045.3,0.261,755.1,01.16,0.508
2016-03-22 02:58:00,2123E-3,5C000400,-0724,0836,12078,024.7,045.3,0.261,755.3,01.16,0.508
2016-03-22 02:59:00,2089E-3,5C000400,-0724,0835,12149,024.7,045.3,0.261,755.3,01.16,0.508
2016-03-22 03:00:00,2035E-3,5C000400,-0724,0837,12036,024.7,045.3,0.261,755.2,01.16,0.508
2016-03-22 03:01:00,1923E-3,5C000400,-0724,0836,12155,024.7,045.3,0.261,755.3,01.16,0.508
2016-03-22 03:02:00,2028E-3,5C000400,-0724,0835,12216,024.7,045.3,0.261,755.4,01.16,0.508
2016-03-22 03:03:00,2009E-3,5C000400,-0724,0836,12122,024.7,045.3,0.261,755.2,01.16,0.508
2016-03-22 03:04:00,1994E-3,5C000400,-0724,0836,12016,024.7,045.3,0.261,755.5,01.16,0.508
2016-03-22 03:05:00,2003E-3,5C000400,-0724,0836,12064,024.7,045.3,0.261,755.2,01.16,0.508
2016-03-22 03:06:00,1930E-3,5C000400,-0724,0836,12130,024.7,045.4,0.261,755.2,01.16,0.508
2016-03-22 03:07:00,2274E-3,5C000400,-0724,0836,12101,024.7,045.3,0.261,755.4,01.16,0.508
2016-03-22 03:08:00,2057E-3,5C000400,-0724,0836,12067,024.7,045.3,0.261,755.4,01.16,0.508
2016-03-22 03:09:00,2036E-3,5C000400,-0724,0837,12153,024.7,045.4,0.261,755.4,01.16,0.508
2016-03-22 03:10:00,2166E-3,5C000400,-0724,0836,12154,024.7,045.3,0.261,755.4,01.16,0.508
2016-03-22 03:11:00,2099E-3,5C000400,-0724,0836,12128,024.6,045.3,0.261,755.5,01.16,0.508
2016-03-22 03:12:00,2146E-3,5C000400,-0724,0836,12142,024.7,045.3,0.261,755.4,01.16,0.508
2016-03-22 03:13:00,2045E-3,5C000400,-0724,0836,11982,024.7,045.3,0.261,755.4,01.16,0.508
2016-03-22 03:14:00,2035E-3,5C000400,-0724,0837,12132,024.7,045.3,0.261,755.7,01.16,0.508
2016-03-22 03:15:00,2208E-3,5C000400,-0724,0836,12226,024.6,045.3,0.261,755.5,01.16,0.508
2016-03-22 03:16:00,2017E-3,5C000400,-0724,0837,12068,024.6,045.3,0.261,755.7,01.16,0.508
2016-03-22 03:17:00,2009E-3,5C000400,-0724,0836,11934,024.6,045.4,0.261,755.6,01.16,0.508
2016-03-22 03:18:00,2141E-3,5C000400,-0724,0837,12056,024.6,045.3,0.261,755.6,01.16,0.508
2016-03-22 03:19:00,2171E-3,5C000400,-0724,0836,12137,024.6,045.3,0.261,755.7,01.16,0.508
2016-03-22 03:20:00,2001E-3,5C000400,-0724,0836,12129,024.6,045.3,0.261,755.5,01.16,0.508
2016-03-22 03:21:00,2079E-3,5C000400,-0724,0836,12197,024.6,045.3,0.261,755.6,01.16,0.508
2016-03-22 03:22:00,2063E-3,5C000400,-0724,0836,12203,024.6,045.3,0.261,755.6,01.16,0.508
2016-03-22 03:23:00,1998E-3,5C000400,-0724,0836,12094,024.6,045.3,0.261,755.5,01.16,0.508
2016-03-22 03:24:00,2068E-3,5C000400,-0724,0836,12078,024.6,045.3,0.261,755.8,01.16,0.508
2016-03-22 03:25:00,2120E-3,5C000400,-0724,0836,12156,024.6,045.3,0.261,755.8,01.16,0.508
2016-03-22 03:26:00,2131E-3,5C000400,-0724,0837,12086,024.6,045.3,0.261,755.6,01.16,0.508
2016-03-22 03:27:00,2075E-3,5C000400,-0724,0836,12124,024.6,045.3,0.261,755.6,01.16,0.508
2016-03-22 03:28:00,2191E-3,5C000400,-0724,0836,12116,024.6,045.3,0.261,755.8,01.16,0.508
2016-03-22 03:29:00,1964E-3,5C000400,-0724,0836,12168,024.6,045.3,0.261,755.9,01.16,0.508
2016-03-22 03:30:00,2111E-3,5C000400,-0724,0836,12207,024.6,045.3,0.261,755.8,01.16,0.508
2016-03-22 03:31:00,1984E-3,5C000400,-0724,0836,12245,024.6,045.3,0.261,755.7,01.16,0.508
2016-03-22 03:32:00,2090E-3,5C000400,-0724,0836,12173,024.6,045.3,0.261,755.9,01.16,0.508
2016-03-22 03:33:00,2114E-3,5C000400,-0724,0836,12098,024.6,045.3,0.261,755.8,01.16,0.508
2016-03-22 03:34:00,2057E-3,5C000400,-0724,0835,12254,024.6,045.3,0.261,755.8,01.16,0.508
2016-03-22 03:35:00,2147E-3,5C000400,-0724,0836,12157,024.7,045.3,0.261,755.8,01.16,0.508
2016-03-22 03:36:00,1966E-3,5C000400,-0724,0836,12140,024.6,045.3,0.261,755.8,01.16,0.508
2016-03-22 03:37:00,2174E-3,5C000400,-0724,0836,12110,024.6,045.4,0.261,755.9,01.16,0.508
2016-03-22 03:38:00,2036E-3,5C000400,-0724,0836,12108,024.6,045.3,0.261,755.6,01.16,0.508
2016-03-22 03:39:00,2065E-3,5C000400,-0724,0836,12046,024.6,045.3,0.261,755.8,01.16,0.508
2016-03-22 03:40:00,2109E-3,5C000400,-0724,0836,12182,024.6,045.3,0.261,755.9,01.16,0.508
2016-03-22 03:41:00,2104E-3,5C000400,-0724,0837,12181,024.6,045.3,0.261,756.0,01.16,0.508
2016-03-22 03:42:00,2055E-3,5C000400,-0724,0836,12158,024.6,045.3,0.261,756.0,01.16,0.508
2016-03-22 03:43:00,2228E-3,5C000400,-0724,0836,12094,024.6,045.3,0.262,755.9,01.16,0.508
2016-03-22 03:44:00,2055E-3,5C000400,-0724,0837,12285,024.7,045.3,0.261,756.0,01.16,0.508
2016-03-22 03:45:00,2125E-3,5C000400,-0724,0836,12329,024.6,045.3,0.262,756.2,01.16,0.508
2016-03-22 03:46:00,1968E-3,5C000400,-0724,0836,12178,024.7,045.3,0.261,756.0,01.16,0.508
2016-03-22 03:47:00,2136E-3,5C000400,-0724,0837,12048,024.7,045.3,0.261,756.0,01.16,0.508
2016-03-22 03:48:00,2072E-3,5C000400,-0724,0836,12167,024.7,045.3,0.261,756.0,01.16,0.508
2016-03-22 03:49:00,2111E-3,5C000400,-0724,0836,11928,024.7,045.3,0.261,756.2,01.16,0.508
2016-03-22 03:50:00,2192E-3,5C000400,-0724,0837,12204,024.7,045.3,0.261,756.1,01.16,0.508
2016-03-22 03:51:00,2171E-3,5C000400,-0724,0836,12136,024.7,045.3,0.261,756.1,01.16,0.508
2016-03-22 03:52:00,2073E-3,5C000400,-0724,0836,12142,024.7,045.3,0.261,756.3,01.16,0.508
2016-03-22 03:53:00,2048E-3,5C000400,-0724,0836,12085,024.7,045.3,0.261,756.3,01.16,0.508
2016-03-22 03:54:00,2198E-3,5C000400,-0724,0836,12055,024.7,045.3,0.261,756.1,01.16,0.508
2016-03-22 03:55:00,2146E-3,5C000400,-0724,0835,12129,024.7,045.4,0.261,756.2,01.16,0.508
2016-03-22 03:56:00,2156E-3,5C000400,-0724,0835,12125,024.7,045.3,0.261,756.2,01.16,0.508
2016-03-22 03:57:00,2086E-3,5C000400,-0724,0836,11956,024.7,045.3,0.261,756.2,01.16,0.508
2016-03-22 03:58:00,2078E-3,5C000400,-0724,0835,12164,024.7,045.3,0.261,756.3,01.16,0.508
2016-03-22 03:59:00,2181E-3,5C000400,-0724,0836,12130,024.7,045.3,0.261,756.3,01.16,0.508
2016-03-22 04:00:00,2145E-3,5C000400,-0724,0836,12289,024.7,045.3,0.261,756.3,01.16,0.508
2016-03-22 04:01:00,2128E-3,5C000400,-0724,0837,12153,024.7,045.4,0.261,756.3,01.16,0.508
2016-03-22 04:02:00,2071E-3,5C000400,-0724,0836,12263,024.7,045.3,0.261,756.4,01.16,0.508
2016-03-22 04:03:00,2024E-3,5C000400,-0724,0837,12092,024.7,045.3,0.261,756.4,01.16,0.508
2016-03-22 04:04:00,2093E-3,5C000400,-0724,0836,12191,024.7,045.3,0.261,756.3,01.16,0.508
2016-03-22 04:05:00,2075E-3,5C000400,-0724,0835,12016,024.8,045.3,0.261,756.4,01.16,0.508
2016-03-22 04:06:00,2148E-3,5C000400,-0724,0836,12121,024.8,045.3,0.260,756.3,01.16,0.508
2016-03-22 04:07:00,2060E-3,5C000400,-0724,0837,12123,024.8,045.3,0.261,756.4,01.16,0.508
2016-03-22 04:08:00,2209E-3,5C000400,-0724,0836,12106,024.8,045.4,0.261,756.4,01.16,0.508
2016-03-22 04:09:00,2198E-3,5C000400,-0724,0835,11991,024.8,045.3,0.261,756.3,01.16,0.508
2016-03-22 04:10:00,2022E-3,5C000400,-0724,0836,12222,024.8,045.3,0.261,756.2,01.16,0.508
2016-03-22 04:11:00,2034E-3,5C000400,-0724,0836,12165,024.8,045.3,0.260,756.3,01.16,0.508
2016-03-22 04:12:00,2175E-3,5C000400,-0724,0836,12127,024.8,045.3,0.261,756.1,01.16,0.508
2016-03-22 04:13:00,2049E-3,5C000400,-0724,0836,12101,024.8,045.3,0.261,756.2,01.16,0.508
2016-03-22 04:14:00,2097E-3,5C000400,-0724,0836,12090,024.8,045.3,0.261,756.0,01.16,0.508
2016-03-22 04:15:00,2077E-3,5C000400,-0724,0836,12314,024.8,045.3,0.261,756.2,01.16,0.508
2016-03-22 04:16:00,2099E-3,5C000400,-0724,0836,12157,024.8,045.3,0.260,756.1,01.16,0.508
2016-03-22 04:17:00,2018E-3,5C000400,-0724,0836,12166,024.8,045.3,0.261,756.1,01.16,0.508
2016-03-22 04:18:00,2000E-3,5C000400,-0724,0836,12224,024.9,045.3,0.261,756.3,01.16,0.508
2016-03-22 04:19:00,2033E-3,5C000400,-0724,0836,12142,024.8,045.3,0.261,756.3,01.16,0.508
2016-03-22 04:20:00,2146E-3,5C000400,-0724,0836,12142,024.9,045.3,0.261,756.3,01.16,0.508